Time,TemperatureF,DewpointF,PressureIn,WindDirection,WindDirectionDegrees,WindSpeedMPH,WindSpeedGustMPH,Humidity,HourlyPrecipIn,Conditions,Clouds,dailyrainin,SoftwareType,DateUTC
2013-03-14 00:00:00,51.6,42.9,29.35,SSW,203,2.6,2.6,72,0.00,,,0.45,WUHU216HW,2013-03-13 23:00:00,
2013-03-14 00:05:00,51.6,43.2,29.35,SW,225,0.8,2.6,73,0.00,,,0.00,WUHU216HW,2013-03-13 23:05:00,
2013-03-14 00:10:00,51.6,43.2,29.35,SSW,203,2.0,2.4,73,0.00,,,0.00,WUHU216HW,2013-03-13 23:10:00,
2013-03-14 00:15:00,51.6,43.2,29.35,WNW,293,0.8,2.2,73,0.00,,,0.00,WUHU216HW,2013-03-13 23:15:00,
2013-03-14 00:20:00,51.6,42.9,29.35,SSW,203,0.0,2.2,72,0.00,,,0.00,WUHU216HW,2013-03-13 23:20:00,
2013-03-14 00:25:00,51.4,42.4,29.35,West,270,0.0,2.2,71,0.00,,,0.00,WUHU216HW,2013-03-13 23:25:00,
2013-03-14 00:30:00,51.4,42.4,29.35,South,180,1.5,1.5,71,0.00,,,0.00,WUHU216HW,2013-03-13 23:30:00,
2013-03-14 00:35:00,51.4,42.4,29.35,WSW,240,2.6,4.0,71,0.00,,,0.00,WUHU216HW,2013-03-13 23:35:00,
2013-03-14 00:40:00,51.4,42.4,29.34,WNW,293,0.6,4.0,71,0.00,,,0.00,WUHU216HW,2013-03-13 23:40:00,
2013-03-14 00:45:00,51.4,42.4,29.35,West,270,0.0,3.3,71,0.00,,,0.00,WUHU216HW,2013-03-13 23:45:00,
2013-03-14 00:50:00,51.4,42.4,29.34,WSW,248,0.0,3.3,71,0.00,,,0.00,WUHU216HW,2013-03-13 23:50:00,
2013-03-14 00:55:00,51.4,42.4,29.34,West,270,0.0,0.0,71,0.00,,,0.00,WUHU216HW,2013-03-13 23:55:00,
2013-03-14 01:01:00,51.2,42.2,29.34,SSE,158,0.6,0.6,71,0.00,,,0.00,WUHU216HW,2013-03-14 00:01:00,
2013-03-14 01:06:00,51.2,42.2,29.34,SW,225,4.2,4.2,71,0.00,,,0.00,WUHU216HW,2013-03-14 00:06:00,
2013-03-14 01:11:00,51.2,42.5,29.34,South,180,0.0,4.2,72,0.00,,,0.00,WUHU216HW,2013-03-14 00:11:00,
2013-03-14 01:16:00,51.2,42.5,29.33,ESE,113,0.8,1.7,72,0.00,,,0.00,WUHU216HW,2013-03-14 00:16:00,
2013-03-14 01:21:00,51.0,42.4,29.33,SE,135,0.6,0.8,72,0.00,,,0.00,WUHU216HW,2013-03-14 00:21:00,
2013-03-14 01:26:00,51.0,42.4,29.32,SSE,158,0.0,0.6,72,0.00,,,0.00,WUHU216HW,2013-03-14 00:26:00,
2013-03-14 01:31:00,51.0,42.4,29.33,SSE,158,0.0,0.0,72,0.00,,,0.00,WUHU216HW,2013-03-14 00:31:00,
2013-03-14 01:36:00,50.9,42.2,29.32,ESE,104,1.8,2.6,72,0.00,,,0.00,WUHU216HW,2013-03-14 00:36:00,
2013-03-14 01:41:00,50.9,42.5,29.32,ESE,103,1.9,2.6,73,0.00,,,0.00,WUHU216HW,2013-03-14 00:41:00,
2013-03-14 01:46:00,50.7,42.0,29.32,East,90,0.0,2.4,72,0.00,,,0.00,WUHU216HW,2013-03-14 00:46:00,
2013-03-14 01:51:00,50.7,42.0,29.32,ENE,68,1.3,1.3,72,0.00,,,0.00,WUHU216HW,2013-03-14 00:51:00,
2013-03-14 01:56:00,50.7,42.0,29.32,East,90,0.0,1.3,72,0.00,,,0.00,WUHU216HW,2013-03-14 00:56:00,
2013-03-14 02:01:00,50.7,42.0,29.32,East,90,0.0,0.0,72,0.00,,,0.00,WUHU216HW,2013-03-14 01:01:00,
2013-03-14 02:06:00,50.5,42.5,29.31,NE,45,1.3,1.3,74,0.00,,,0.00,WUHU216HW,2013-03-14 01:06:00,
2013-03-14 02:11:00,50.5,42.8,29.31,NNW,338,1.5,2.9,75,0.00,,,0.00,WUHU216HW,2013-03-14 01:11:00,
2013-03-14 02:16:00,50.7,42.8,29.30,ENE,68,0.0,2.9,75,0.00,,,0.00,WUHU216HW,2013-03-14 01:16:00,
2013-03-14 02:21:00,50.5,42.5,29.30,ENE,68,0.0,0.8,74,0.00,,,0.00,WUHU216HW,2013-03-14 01:21:00,
2013-03-14 02:26:00,50.5,42.5,29.30,ENE,68,0.0,0.0,74,0.00,,,0.00,WUHU216HW,2013-03-14 01:26:00,
2013-03-14 02:31:00,50.3,41.6,29.30,NE,45,0.0,0.0,72,0.00,,,0.00,WUHU216HW,2013-03-14 01:31:00,
2013-03-14 02:36:00,50.3,41.3,29.29,NE,45,0.8,0.8,71,0.00,,,0.00,WUHU216HW,2013-03-14 01:36:00,
2013-03-14 02:41:00,50.1,40.8,29.29,NE,45,0.0,0.8,70,0.00,,,0.00,WUHU216HW,2013-03-14 01:41:00,
2013-03-14 02:46:00,50.1,40.8,29.29,ENE,68,0.0,0.0,70,0.00,,,0.00,WUHU216HW,2013-03-14 01:46:00,
2013-03-14 02:51:00,50.0,40.6,29.28,East,90,0.0,0.0,70,0.00,,,0.00,WUHU216HW,2013-03-14 01:51:00,
2013-03-14 02:56:00,50.0,40.6,29.28,East,90,0.0,0.0,70,0.00,,,0.00,WUHU216HW,2013-03-14 01:56:00,
2013-03-14 03:01:00,50.1,40.4,29.28,ENE,68,0.0,0.0,69,0.00,,,0.00,WUHU216HW,2013-03-14 02:01:00,
2013-03-14 03:06:00,50.0,40.2,29.27,East,90,0.0,0.0,69,0.00,,,0.00,WUHU216HW,2013-03-14 02:06:00,
2013-03-14 03:11:00,50.0,40.2,29.27,SE,135,0.0,0.0,69,0.00,,,0.00,WUHU216HW,2013-03-14 02:11:00,
2013-03-14 03:16:00,50.1,40.4,29.27,WSW,248,2.0,2.0,69,0.00,,,0.00,WUHU216HW,2013-03-14 02:16:00,
2013-03-14 03:21:00,50.1,40.0,29.28,West,270,3.2,5.1,68,0.00,,,0.00,WUHU216HW,2013-03-14 02:21:00,
2013-03-14 03:26:00,49.8,38.8,29.27,WSW,248,3.5,5.1,66,0.00,,,0.00,WUHU216HW,2013-03-14 02:26:00,
2013-03-14 03:31:00,49.8,37.6,29.27,WNW,293,4.2,4.9,62,0.00,,,0.00,WUHU216HW,2013-03-14 02:31:00,
2013-03-14 03:36:00,49.6,36.7,29.27,West,270,1.1,4.9,61,0.00,,,0.00,WUHU216HW,2013-03-14 02:36:00,
2013-03-14 03:41:00,49.4,36.1,29.27,NNW,338,0.0,1.5,60,0.00,,,0.00,WUHU216HW,2013-03-14 02:41:00,
2013-03-14 03:46:00,49.2,35.1,29.27,NE,45,0.0,1.5,58,0.00,,,0.00,WUHU216HW,2013-03-14 02:46:00,
2013-03-14 03:51:00,49.1,34.9,29.27,WSW,248,0.0,0.8,58,0.00,,,0.00,WUHU216HW,2013-03-14 02:51:00,
2013-03-14 03:56:00,49.1,34.3,29.27,North,0,0.0,0.8,57,0.00,,,0.00,WUHU216HW,2013-03-14 02:56:00,
2013-03-14 04:01:00,49.1,34.0,29.27,NW,315,0.0,0.0,56,0.00,,,0.00,WUHU216HW,2013-03-14 03:01:00,
2013-03-14 04:06:00,48.9,33.4,29.27,NNE,23,0.0,0.0,55,0.02,,,0.02,WUHU216HW,2013-03-14 03:06:00,
2013-03-14 04:11:00,48.9,32.9,29.26,NNE,23,0.0,0.0,54,0.04,,,0.04,WUHU216HW,2013-03-14 03:11:00,
2013-03-14 04:16:00,48.9,32.4,29.26,WNW,293,1.5,1.5,53,0.04,,,0.04,WUHU216HW,2013-03-14 03:16:00,
2013-03-14 04:22:00,48.7,30.9,29.25,ENE,68,3.5,3.5,51,0.06,,,0.06,WUHU216HW,2013-03-14 03:22:00,
2013-03-14 04:27:00,48.7,30.3,29.25,NNE,23,0.0,4.6,49,0.06,,,0.06,WUHU216HW,2013-03-14 03:27:00,
2013-03-14 04:32:00,48.7,29.2,29.25,NE,45,3.5,4.6,47,0.08,,,0.08,WUHU216HW,2013-03-14 03:32:00,
2013-03-14 04:37:00,48.7,29.2,29.25,West,270,0.8,4.4,47,0.08,,,0.08,WUHU216HW,2013-03-14 03:37:00,
2013-03-14 04:42:00,48.7,28.7,29.25,WNW,293,4.2,4.2,46,0.08,,,0.08,WUHU216HW,2013-03-14 03:42:00,
2013-03-14 04:47:00,48.3,28.3,29.24,NE,45,0.0,4.2,46,0.08,,,0.08,WUHU216HW,2013-03-14 03:47:00,
2013-03-14 04:53:00,48.3,28.3,29.24,NE,45,1.1,1.1,46,0.08,,,0.08,WUHU216HW,2013-03-14 03:53:00,
2013-03-14 04:58:00,48.3,27.8,29.24,NE,45,2.4,2.4,45,0.10,,,0.10,WUHU216HW,2013-03-14 03:58:00,
2013-03-14 05:00:00,48.2,27.6,29.24,NE,45,2.4,2.4,45,0.10,,,0.10,WUHU216HW,2013-03-14 04:00:00,
2013-03-14 05:05:00,48.2,27.1,29.23,ENE,59,3.1,3.8,44,0.08,,,0.10,WUHU216HW,2013-03-14 04:05:00,
2013-03-14 05:10:00,48.2,27.1,29.23,NE,45,4.0,4.9,44,0.06,,,0.10,WUHU216HW,2013-03-14 04:10:00,
2013-03-14 05:15:00,48.2,27.1,29.22,NE,45,3.3,4.9,44,0.06,,,0.10,WUHU216HW,2013-03-14 04:15:00,
2013-03-14 05:20:00,48.3,27.3,29.22,ENE,68,2.2,3.5,44,0.04,,,0.10,WUHU216HW,2013-03-14 04:20:00,
2013-03-14 05:25:00,48.3,26.7,29.22,NE,45,2.9,2.9,43,0.04,,,0.10,WUHU216HW,2013-03-14 04:25:00,
2013-03-14 05:30:00,48.5,28.0,29.21,ENE,68,3.1,3.1,45,0.02,,,0.10,WUHU216HW,2013-03-14 04:30:00,
2013-03-14 05:35:00,48.5,28.0,29.21,ESE,113,0.6,3.1,45,0.02,,,0.10,WUHU216HW,2013-03-14 04:35:00,
2013-03-14 05:40:00,48.5,28.0,29.21,East,90,1.1,2.2,45,0.02,,,0.10,WUHU216HW,2013-03-14 04:40:00,
2013-03-14 05:45:00,48.5,28.5,29.20,ENE,68,0.0,2.2,46,0.02,,,0.10,WUHU216HW,2013-03-14 04:45:00,
2013-03-14 05:50:00,48.5,29.1,29.20,East,101,1.6,2.0,47,0.02,,,0.10,WUHU216HW,2013-03-14 04:50:00,
2013-03-14 05:55:00,48.5,29.6,29.19,ENE,68,0.0,2.0,48,0.00,,,0.10,WUHU216HW,2013-03-14 04:55:00,
2013-03-14 06:00:00,48.5,30.1,29.19,ESE,113,0.0,0.0,49,0.00,,,0.10,WUHU216HW,2013-03-14 05:00:00,
2013-03-14 06:05:00,48.5,30.1,29.19,SW,225,2.0,2.0,49,0.00,,,0.10,WUHU216HW,2013-03-14 05:05:00,
2013-03-14 06:10:00,48.7,31.3,29.19,WSW,242,2.7,3.3,51,0.00,,,0.10,WUHU216HW,2013-03-14 05:10:00,
2013-03-14 06:15:00,48.5,31.1,29.18,SW,225,0.0,3.3,51,0.00,,,0.10,WUHU216HW,2013-03-14 05:15:00,
2013-03-14 06:20:00,48.3,31.0,29.18,SW,225,0.0,2.4,51,0.00,,,0.10,WUHU216HW,2013-03-14 05:20:00,
2013-03-14 06:25:00,48.3,31.0,29.18,SW,225,1.5,1.5,51,0.00,,,0.10,WUHU216HW,2013-03-14 05:25:00,
2013-03-14 06:30:00,48.2,30.3,29.18,WSW,248,0.8,1.5,50,0.00,,,0.10,WUHU216HW,2013-03-14 05:30:00,
2013-03-14 06:35:00,48.2,30.3,29.18,NW,315,0.0,1.3,50,0.00,,,0.10,WUHU216HW,2013-03-14 05:35:00,
2013-03-14 06:40:00,48.0,29.6,29.18,NNW,338,0.0,0.0,49,0.00,,,0.10,WUHU216HW,2013-03-14 05:40:00,
2013-03-14 06:45:00,48.0,29.6,29.18,ENE,68,0.0,0.0,49,0.00,,,0.10,WUHU216HW,2013-03-14 05:45:00,
2013-03-14 06:50:00,48.0,29.1,29.17,SE,135,0.0,0.0,48,0.00,,,0.10,WUHU216HW,2013-03-14 05:50:00,
2013-03-14 06:55:00,48.0,29.1,29.17,SE,135,0.0,0.0,48,0.00,,,0.10,WUHU216HW,2013-03-14 05:55:00,
2013-03-14 07:00:00,48.2,28.7,29.17,SW,225,0.8,0.8,47,0.00,,,0.10,WUHU216HW,2013-03-14 06:00:00,
2013-03-14 07:05:00,48.3,28.9,29.17,SSE,158,3.1,3.1,47,0.00,,,0.10,WUHU216HW,2013-03-14 06:05:00,
2013-03-14 07:10:00,48.7,29.2,29.17,SW,225,2.2,3.1,47,0.00,,,0.10,WUHU216HW,2013-03-14 06:10:00,
2013-03-14 07:15:00,48.7,29.2,29.17,SSW,203,2.2,3.8,47,0.00,,,0.10,WUHU216HW,2013-03-14 06:15:00,
2013-03-14 07:20:00,48.7,29.8,29.18,SW,233,5.6,6.2,48,0.00,,,0.10,WUHU216HW,2013-03-14 06:20:00,
2013-03-14 07:25:00,48.7,29.8,29.17,SW,225,7.3,7.3,48,0.00,,,0.10,WUHU216HW,2013-03-14 06:25:00,
2013-03-14 07:30:00,48.7,29.2,29.18,SW,225,6.4,7.3,47,0.00,,,0.10,WUHU216HW,2013-03-14 06:30:00,
2013-03-14 07:35:00,48.7,28.7,29.17,SW,233,2.9,7.1,46,0.00,,,0.10,WUHU216HW,2013-03-14 06:35:00,
2013-03-14 07:40:00,48.5,28.5,29.17,SW,225,4.0,9.8,46,0.00,,,0.10,WUHU216HW,2013-03-14 06:40:00,
2013-03-14 07:45:00,48.3,28.0,29.17,South,191,3.3,9.8,44,0.00,,,0.10,WUHU216HW,2013-03-14 06:45:00,
2013-03-14 07:50:00,48.5,27.4,29.17,SE,135,2.0,6.9,44,0.00,,,0.10,WUHU216HW,2013-03-14 06:50:00,
2013-03-14 07:55:00,48.5,26.9,29.17,ESE,113,2.0,3.5,43,0.00,,,0.10,WUHU216HW,2013-03-14 06:55:00,
2013-03-14 08:00:00,48.5,26.9,29.17,East,90,0.0,3.5,43,0.00,,,0.10,WUHU216HW,2013-03-14 07:00:00,
2013-03-14 08:05:00,48.7,27.0,29.17,North,0,0.0,1.3,44,0.00,,,0.10,WUHU216HW,2013-03-14 07:05:00,
2013-03-14 08:10:00,48.7,27.6,29.17,West,270,2.6,2.6,44,0.00,,,0.10,WUHU216HW,2013-03-14 07:10:00,
2013-03-14 08:16:00,48.7,27.6,29.17,WSW,248,5.3,5.3,44,0.02,,,0.12,WUHU216HW,2013-03-14 07:16:00,
2013-03-14 08:21:00,48.7,27.6,29.17,WSW,248,2.2,5.3,44,0.02,,,0.12,WUHU216HW,2013-03-14 07:21:00,
2013-03-14 08:26:00,48.7,27.6,29.16,SW,225,2.9,3.8,44,0.02,,,0.12,WUHU216HW,2013-03-14 07:26:00,
2013-03-14 08:31:00,48.3,26.7,29.16,SSW,203,2.2,4.0,43,0.02,,,0.12,WUHU216HW,2013-03-14 07:31:00,
2013-03-14 08:36:00,48.5,26.9,29.17,SE,135,0.0,4.0,43,0.02,,,0.12,WUHU216HW,2013-03-14 07:36:00,
2013-03-14 08:41:00,48.5,26.9,29.17,SE,135,2.4,2.4,43,0.02,,,0.12,WUHU216HW,2013-03-14 07:41:00,
2013-03-14 08:46:00,48.5,27.4,29.17,South,180,1.1,2.4,44,0.02,,,0.12,WUHU216HW,2013-03-14 07:46:00,
2013-03-14 08:51:00,48.9,30.5,29.17,SE,137,2.7,2.9,49,0.02,,,0.12,WUHU216HW,2013-03-14 07:51:00,
2013-03-14 08:56:00,49.2,36.0,29.17,South,180,4.0,7.8,60,0.04,,,0.14,WUHU216HW,2013-03-14 07:56:00,
2013-03-14 09:01:00,49.6,38.6,29.17,South,180,3.1,7.8,66,0.04,,,0.14,WUHU216HW,2013-03-14 08:01:00,
2013-03-14 09:06:00,49.6,40.2,29.18,SSE,158,11.6,11.6,70,0.06,,,0.16,WUHU216HW,2013-03-14 08:06:00,
2013-03-14 09:11:00,49.2,40.2,29.18,South,179,4.3,11.6,71,0.06,,,0.18,WUHU216HW,2013-03-14 08:11:00,
2013-03-14 09:16:00,49.1,39.7,29.17,SSE,158,8.2,8.2,70,0.08,,,0.20,WUHU216HW,2013-03-14 08:16:00,
2013-03-14 09:21:00,49.1,39.3,29.18,SE,135,1.5,8.2,69,0.10,,,0.22,WUHU216HW,2013-03-14 08:21:00,
2013-03-14 09:26:00,49.1,39.7,29.18,SSW,203,9.8,9.8,70,0.10,,,0.22,WUHU216HW,2013-03-14 08:26:00,
2013-03-14 09:31:00,48.9,39.7,29.17,SSE,158,5.1,9.8,71,0.12,,,0.24,WUHU216HW,2013-03-14 08:31:00,
2013-03-14 09:36:00,48.7,40.4,29.17,East,90,3.1,6.2,73,0.12,,,0.24,WUHU216HW,2013-03-14 08:36:00,
2013-03-14 09:41:00,48.7,40.0,29.17,SSW,203,2.2,6.0,72,0.14,,,0.26,WUHU216HW,2013-03-14 08:41:00,
2013-03-14 09:46:00,48.7,40.4,29.17,South,189,2.8,3.3,73,0.14,,,0.26,WUHU216HW,2013-03-14 08:46:00,
2013-03-14 09:51:00,48.7,40.4,29.17,SSE,158,2.4,3.8,73,0.14,,,0.26,WUHU216HW,2013-03-14 08:51:00,
2013-03-14 09:56:00,48.9,40.5,29.17,ESE,122,3.5,4.0,73,0.12,,,0.26,WUHU216HW,2013-03-14 08:56:00,
2013-03-14 10:01:00,49.1,41.1,29.17,ESE,113,2.2,4.0,74,0.12,,,0.26,WUHU216HW,2013-03-14 09:01:00,
2013-03-14 10:06:00,49.2,40.9,29.16,East,90,0.0,2.2,73,0.10,,,0.26,WUHU216HW,2013-03-14 09:06:00,
2013-03-14 10:11:00,49.2,40.6,29.16,NE,45,0.0,2.0,72,0.08,,,0.26,WUHU216HW,2013-03-14 09:11:00,
2013-03-14 10:16:00,49.2,39.9,29.16,NNW,338,1.3,2.0,70,0.06,,,0.26,WUHU216HW,2013-03-14 09:16:00,
2013-03-14 11:51:00,49.1,39.3,29.15,NW,315,1.3,1.3,69,0.00,,,0.28,WUHU216HW,2013-03-14 10:51:00,
2013-03-14 11:56:00,48.7,38.6,29.15,WNW,293,0.8,1.3,68,0.00,,,0.35,WUHU216HW,2013-03-14 10:56:00,
2013-03-14 12:01:00,48.5,38.4,29.15,NW,315,0.8,1.3,68,0.00,,,0.35,WUHU216HW,2013-03-14 11:01:00,
2013-03-14 12:06:00,48.3,37.8,29.15,West,270,0.0,1.3,67,0.02,,,0.37,WUHU216HW,2013-03-14 11:06:00,
2013-03-14 12:11:00,48.0,37.5,29.15,WNW,293,0.0,1.3,67,0.02,,,0.37,WUHU216HW,2013-03-14 11:11:00,
2013-03-14 12:16:00,48.0,36.7,29.15,West,270,0.0,1.3,65,0.02,,,0.37,WUHU216HW,2013-03-14 11:16:00,
2013-03-14 12:21:00,48.0,37.1,29.15,WNW,293,0.6,0.6,66,0.02,,,0.37,WUHU216HW,2013-03-14 11:21:00,
2013-03-14 12:26:00,48.0,36.7,29.15,North,0,0.0,0.6,65,0.02,,,0.37,WUHU216HW,2013-03-14 11:26:00,
2013-03-14 12:31:00,48.0,36.7,29.15,North,0,0.0,0.0,65,0.02,,,0.37,WUHU216HW,2013-03-14 11:31:00,
2013-03-14 12:36:00,48.3,36.3,29.14,NE,45,2.4,2.4,63,0.02,,,0.37,WUHU216HW,2013-03-14 11:36:00,
2013-03-14 12:41:00,48.7,35.9,29.14,North,10,1.8,2.4,61,0.02,,,0.37,WUHU216HW,2013-03-14 11:41:00,
2013-03-14 12:47:00,48.9,36.8,29.14,NE,45,0.8,2.0,63,0.02,,,0.37,WUHU216HW,2013-03-14 11:47:00,
2013-03-14 12:52:00,49.1,37.5,29.14,North,0,0.0,2.4,64,0.02,,,0.37,WUHU216HW,2013-03-14 11:52:00,
2013-03-14 12:57:00,49.1,38.9,29.13,NNE,23,1.5,2.4,68,0.02,,,0.37,WUHU216HW,2013-03-14 11:57:00,
2013-03-14 13:02:00,49.2,37.1,29.14,North,0,0.8,1.5,63,0.00,,,0.37,WUHU216HW,2013-03-14 12:02:00,
2013-03-14 13:07:00,49.6,36.3,29.13,NE,45,0.0,0.8,60,0.00,,,0.37,WUHU216HW,2013-03-14 12:07:00,
2013-03-14 13:12:00,49.4,36.1,29.13,NE,45,0.0,1.7,60,0.00,,,0.37,WUHU216HW,2013-03-14 12:12:00,
2013-03-14 13:17:00,49.2,35.5,29.13,NNE,23,1.3,2.9,59,0.00,,,0.37,WUHU216HW,2013-03-14 12:17:00,
2013-03-14 13:22:00,49.1,34.0,29.13,North,0,3.3,3.3,56,0.01,,,0.38,WUHU216HW,2013-03-14 12:22:00,
2013-03-14 13:27:00,48.7,33.2,29.13,NW,315,7.1,7.1,55,0.03,,,0.40,WUHU216HW,2013-03-14 12:27:00,
2013-03-14 13:32:00,47.8,33.7,29.14,West,270,5.8,10.7,58,0.03,,,0.40,WUHU216HW,2013-03-14 12:32:00,
2013-03-14 13:37:00,47.1,32.5,29.14,SW,225,2.4,10.7,56,0.12,,,0.49,WUHU216HW,2013-03-14 12:37:00,
2013-03-14 13:42:00,46.9,31.3,29.14,WNW,293,0.0,8.0,55,0.18,,,0.55,WUHU216HW,2013-03-14 12:42:00,
2013-03-14 13:47:00,46.5,30.2,29.14,NNE,23,0.0,2.2,53,0.20,,,0.57,WUHU216HW,2013-03-14 12:47:00,
2013-03-14 13:52:00,46.9,29.2,29.14,NE,46,1.7,2.2,50,0.22,,,0.59,WUHU216HW,2013-03-14 12:52:00,
2013-03-14 13:57:00,46.7,29.0,29.14,North,0,2.9,3.1,50,0.24,,,0.61,WUHU216HW,2013-03-14 12:57:00,
2013-03-14 14:02:00,46.9,28.7,29.14,North,0,1.3,3.1,49,0.24,,,0.61,WUHU216HW,2013-03-14 13:02:00,
2013-03-14 14:07:00,46.9,28.1,29.14,North,0,1.1,2.6,49,0.24,,,0.61,WUHU216HW,2013-03-14 13:07:00,
2013-03-14 14:12:00,47.1,28.3,29.14,NNE,23,3.5,3.5,48,0.24,,,0.61,WUHU216HW,2013-03-14 13:12:00,
2013-03-14 14:17:00,46.9,29.6,29.15,NE,45,5.1,5.1,51,0.26,,,0.63,WUHU216HW,2013-03-14 13:17:00,
2013-03-14 14:22:00,46.7,29.6,29.15,ENE,68,4.0,5.1,52,0.25,,,0.63,WUHU216HW,2013-03-14 13:22:00,
2013-03-14 14:27:00,46.9,30.5,29.15,NNE,23,1.1,4.0,52,0.25,,,0.65,WUHU216HW,2013-03-14 13:27:00,
2013-03-14 14:32:00,46.9,30.1,29.15,NE,56,2.3,4.0,52,0.23,,,0.65,WUHU216HW,2013-03-14 13:32:00,
2013-03-14 14:37:00,46.9,30.1,29.15,East,84,1.4,3.5,52,0.16,,,0.67,WUHU216HW,2013-03-14 13:37:00,
2013-03-14 14:42:00,47.1,29.8,29.15,East,90,3.8,3.8,51,0.12,,,0.67,WUHU216HW,2013-03-14 13:42:00,
2013-03-14 14:47:00,47.1,32.1,29.15,East,90,2.2,3.8,56,0.10,,,0.67,WUHU216HW,2013-03-14 13:47:00,
2013-03-14 14:52:00,47.3,32.3,29.16,East,90,3.1,3.1,57,0.08,,,0.67,WUHU216HW,2013-03-14 13:52:00,
2013-03-14 14:57:00,47.1,35.1,29.15,NNE,32,3.3,3.8,63,0.08,,,0.69,WUHU216HW,2013-03-14 13:57:00,
2013-03-14 15:02:00,47.1,37.4,29.15,East,90,2.2,3.8,69,0.08,,,0.69,WUHU216HW,2013-03-14 14:02:00,
2013-03-14 15:07:00,47.1,37.8,29.15,East,100,2.0,3.1,70,0.08,,,0.69,WUHU216HW,2013-03-14 14:07:00,
2013-03-14 15:12:00,47.3,37.2,29.16,NE,45,1.3,3.1,68,0.08,,,0.69,WUHU216HW,2013-03-14 14:12:00,
2013-03-14 15:17:00,47.8,37.3,29.16,ENE,74,2.3,2.9,67,0.06,,,0.69,WUHU216HW,2013-03-14 14:17:00,
2013-03-14 15:22:00,47.4,38.8,29.16,ENE,68,1.3,3.5,72,0.06,,,0.69,WUHU216HW,2013-03-14 14:22:00,
2013-03-14 15:27:00,47.4,38.8,29.16,NE,45,1.3,3.8,73,0.04,,,0.69,WUHU216HW,2013-03-14 14:27:00,
2013-03-14 15:32:00,47.8,39.2,29.17,NE,45,2.8,3.8,72,0.04,,,0.69,WUHU216HW,2013-03-14 14:32:00,
2013-03-14 15:37:00,48.0,38.6,29.17,East,90,2.0,3.5,70,0.02,,,0.69,WUHU216HW,2013-03-14 14:37:00,
2013-03-14 15:42:00,48.0,39.7,29.17,ENE,68,1.1,2.6,73,0.02,,,0.69,WUHU216HW,2013-03-14 14:42:00,
2013-03-14 15:47:00,48.0,39.7,29.17,ESE,113,0.8,1.7,73,0.02,,,0.69,WUHU216HW,2013-03-14 14:47:00,
2013-03-14 15:52:00,48.0,40.0,29.16,ENE,68,0.0,0.8,74,0.00,,,0.69,WUHU216HW,2013-03-14 14:52:00,
2013-03-14 15:57:00,48.3,40.2,29.17,North,0,0.0,0.8,73,0.00,,,0.69,WUHU216HW,2013-03-14 14:57:00,
2013-03-14 16:02:00,48.7,41.0,29.17,North,0,0.0,0.0,75,0.00,,,0.69,WUHU216HW,2013-03-14 15:02:00,
2013-03-14 16:07:00,48.7,41.4,29.17,NW,315,2.0,2.0,76,0.00,,,0.69,WUHU216HW,2013-03-14 15:07:00,
2013-03-14 16:12:00,48.5,41.5,29.17,North,0,1.5,2.4,77,0.00,,,0.69,WUHU216HW,2013-03-14 15:12:00,
2013-03-14 16:17:00,48.5,41.2,29.17,NW,315,1.7,2.4,76,0.00,,,0.69,WUHU216HW,2013-03-14 15:17:00,
2013-03-14 16:22:00,48.3,41.4,29.18,NW,315,2.9,2.9,77,0.00,,,0.69,WUHU216HW,2013-03-14 15:22:00,
2013-03-14 16:27:00,48.5,40.9,29.18,ENE,68,0.0,2.9,75,0.00,,,0.69,WUHU216HW,2013-03-14 15:27:00,
2013-03-14 16:32:00,48.3,40.7,29.19,North,0,0.6,1.3,75,0.00,,,0.69,WUHU216HW,2013-03-14 15:32:00,
2013-03-14 16:37:00,48.2,40.5,29.19,NNE,23,0.0,1.3,75,0.00,,,0.69,WUHU216HW,2013-03-14 15:37:00,
2013-03-14 16:42:00,48.2,40.5,29.19,NNE,23,0.0,0.0,75,0.00,,,0.69,WUHU216HW,2013-03-14 15:42:00,
2013-03-14 16:47:00,48.0,40.3,29.19,NW,315,0.0,0.0,75,0.00,,,0.69,WUHU216HW,2013-03-14 15:47:00,
2013-03-14 16:52:00,48.0,40.3,29.19,WNW,293,0.0,0.8,75,0.00,,,0.69,WUHU216HW,2013-03-14 15:52:00,
2013-03-14 16:57:00,48.0,40.3,29.19,West,270,0.0,0.8,75,0.00,,,0.69,WUHU216HW,2013-03-14 15:57:00,
2013-03-14 17:02:00,48.0,40.0,29.19,West,270,0.0,0.0,74,0.00,,,0.69,WUHU216HW,2013-03-14 16:02:00,
2013-03-14 17:07:00,48.0,40.0,29.20,NNW,338,0.0,0.0,74,0.00,,,0.69,WUHU216HW,2013-03-14 16:07:00,
2013-03-14 17:12:00,48.0,39.7,29.20,ENE,68,0.0,0.0,73,0.00,,,0.69,WUHU216HW,2013-03-14 16:12:00,
2013-03-14 17:18:00,48.0,39.7,29.20,ENE,68,0.0,0.0,73,0.00,,,0.69,WUHU216HW,2013-03-14 16:18:00,
2013-03-14 17:23:00,48.0,39.7,29.21,ENE,68,0.0,0.0,73,0.00,,,0.69,WUHU216HW,2013-03-14 16:23:00,
2013-03-14 17:28:00,48.0,39.7,29.21,ENE,68,0.0,0.0,73,0.00,,,0.69,WUHU216HW,2013-03-14 16:28:00,
2013-03-14 17:33:00,48.0,39.3,29.21,ENE,68,0.0,0.0,72,0.00,,,0.69,WUHU216HW,2013-03-14 16:33:00,
2013-03-14 17:38:00,47.8,39.2,29.21,ENE,68,0.0,0.0,72,0.00,,,0.69,WUHU216HW,2013-03-14 16:38:00,
2013-03-14 17:43:00,48.0,38.6,29.21,ENE,68,0.8,0.8,70,0.00,,,0.69,WUHU216HW,2013-03-14 16:43:00,
2013-03-14 17:48:00,48.0,37.5,29.21,ENE,68,0.0,0.8,67,0.00,,,0.69,WUHU216HW,2013-03-14 16:48:00,
2013-03-14 17:53:00,48.0,37.1,29.22,ESE,113,0.0,0.0,66,0.00,,,0.69,WUHU216HW,2013-03-14 16:53:00,
2013-03-14 17:58:00,48.0,37.5,29.22,ENE,68,0.0,0.0,67,0.00,,,0.69,WUHU216HW,2013-03-14 16:58:00,
2013-03-14 18:03:00,47.8,37.3,29.22,ENE,68,0.0,0.0,67,0.00,,,0.69,WUHU216HW,2013-03-14 17:03:00,
2013-03-14 18:08:00,48.0,37.1,29.23,NNW,338,0.0,0.0,66,0.00,,,0.69,WUHU216HW,2013-03-14 17:08:00,
2013-03-14 18:13:00,47.8,36.9,29.23,NNW,338,0.0,0.0,66,0.00,,,0.69,WUHU216HW,2013-03-14 17:13:00,
2013-03-14 18:18:00,47.8,36.9,29.23,WNW,293,0.0,0.0,66,0.00,,,0.69,WUHU216HW,2013-03-14 17:18:00,
2013-03-14 18:23:00,47.8,36.9,29.24,SSW,203,0.0,0.0,66,0.00,,,0.69,WUHU216HW,2013-03-14 17:23:00,
2013-03-14 18:28:00,47.8,36.9,29.24,South,180,0.0,0.0,66,0.00,,,0.69,WUHU216HW,2013-03-14 17:28:00,
2013-03-14 18:33:00,47.6,36.4,29.24,SW,225,0.0,0.0,65,0.00,,,0.69,WUHU216HW,2013-03-14 17:33:00,
2013-03-14 18:39:00,47.6,36.4,29.24,SW,225,1.3,1.5,65,0.00,,,0.69,WUHU216HW,2013-03-14 17:39:00,
2013-03-14 18:44:00,47.4,35.8,29.24,WSW,248,1.1,1.5,64,0.00,,,0.69,WUHU216HW,2013-03-14 17:44:00,
2013-03-14 18:49:00,47.6,35.6,29.24,WNW,293,0.0,1.1,63,0.00,,,0.69,WUHU216HW,2013-03-14 17:49:00,
2013-03-14 18:54:00,47.6,34.8,29.25,NNW,338,1.3,1.3,61,0.00,,,0.69,WUHU216HW,2013-03-14 17:54:00,
2013-03-14 18:58:00,47.6,34.5,29.26,WNW,293,1.4,2.4,60,0.00,,,0.69,WUHU216HW,2013-03-14 17:58:00,
2013-03-14 19:04:00,47.4,33.4,29.26,WNW,293,2.0,2.6,58,0.00,,,0.69,WUHU216HW,2013-03-14 18:04:00,
2013-03-14 19:09:00,47.4,33.4,29.27,West,270,2.4,3.5,58,0.00,,,0.69,WUHU216HW,2013-03-14 18:09:00,
2013-03-14 19:14:00,47.4,32.9,29.27,WNW,287,1.0,3.5,57,0.00,,,0.69,WUHU216HW,2013-03-14 18:14:00,
2013-03-14 19:19:00,47.4,32.9,29.27,WSW,248,1.6,1.7,57,0.00,,,0.69,WUHU216HW,2013-03-14 18:19:00,
2013-03-14 19:24:00,47.3,32.7,29.27,WSW,240,2.3,3.5,57,0.00,,,0.69,WUHU216HW,2013-03-14 18:24:00,
2013-03-14 19:29:00,47.3,32.7,29.27,SSW,203,0.0,3.5,57,0.02,,,0.71,WUHU216HW,2013-03-14 18:29:00,
2013-03-14 19:34:00,47.3,32.7,29.28,South,180,0.0,2.4,57,0.02,,,0.71,WUHU216HW,2013-03-14 18:34:00,
2013-03-14 19:39:00,47.1,32.5,29.28,WSW,248,2.0,2.2,57,0.02,,,0.71,WUHU216HW,2013-03-14 18:39:00,
2013-03-14 19:44:00,47.1,32.1,29.28,SSW,203,0.6,3.8,56,0.02,,,0.71,WUHU216HW,2013-03-14 18:44:00,
2013-03-14 19:49:00,46.9,31.5,29.29,SSW,203,0.0,3.8,55,0.02,,,0.71,WUHU216HW,2013-03-14 18:49:00,
2013-03-14 19:54:00,46.9,31.5,29.29,SW,225,2.4,3.5,55,0.02,,,0.71,WUHU216HW,2013-03-14 18:54:00,
2013-03-14 20:00:00,46.7,31.3,29.29,SW,225,2.2,2.4,55,0.04,,,0.73,WUHU216HW,2013-03-14 19:00:00,
2013-03-14 20:05:00,46.5,31.1,29.29,SW,225,0.9,2.2,55,0.04,,,0.73,WUHU216HW,2013-03-14 19:05:00,
2013-03-14 20:10:00,46.5,31.1,29.29,SSW,203,0.0,1.7,55,0.04,,,0.73,WUHU216HW,2013-03-14 19:10:00,
2013-03-14 20:15:00,46.5,31.1,29.30,South,180,0.0,0.0,55,0.06,,,0.75,WUHU216HW,2013-03-14 19:15:00,
2013-03-14 20:20:00,46.5,31.3,29.30,South,180,0.0,0.0,55,0.08,,,0.77,WUHU216HW,2013-03-14 19:20:00,
2013-03-14 20:25:00,46.7,31.3,29.30,South,180,0.0,0.0,55,0.06,,,0.77,WUHU216HW,2013-03-14 19:25:00,
2013-03-14 20:30:00,46.9,30.1,29.30,North,0,0.6,0.6,52,0.08,,,0.79,WUHU216HW,2013-03-14 19:30:00,
2013-03-14 20:35:00,46.9,30.1,29.30,North,0,2.2,2.2,52,0.08,,,0.79,WUHU216HW,2013-03-14 19:35:00,
2013-03-14 20:40:00,46.7,29.0,29.31,North,0,1.3,2.2,50,0.10,,,0.81,WUHU216HW,2013-03-14 19:40:00,
2013-03-14 20:45:00,46.5,28.3,29.31,North,0,0.0,1.3,49,0.10,,,0.81,WUHU216HW,2013-03-14 19:45:00,
2013-03-14 20:50:00,46.5,28.3,29.31,WNW,293,0.0,1.1,49,0.10,,,0.81,WUHU216HW,2013-03-14 19:50:00,
2013-03-14 20:55:00,46.2,27.5,29.32,North,0,0.0,1.7,48,0.10,,,0.81,WUHU216HW,2013-03-14 19:55:00,
2013-03-14 21:00:00,46.2,28.0,29.32,North,0,0.0,1.7,49,0.08,,,0.81,WUHU216HW,2013-03-14 20:00:00,
2013-03-14 21:06:00,46.2,28.0,29.32,ESE,113,0.0,0.0,49,0.08,,,0.81,WUHU216HW,2013-03-14 20:06:00,
2013-03-14 21:10:00,46.2,27.5,29.32,SE,135,0.0,0.8,48,0.08,,,0.83,WUHU216HW,2013-03-14 20:10:00,
2013-03-14 21:15:00,46.2,27.5,29.32,SE,135,0.0,0.8,48,0.08,,,0.83,WUHU216HW,2013-03-14 20:15:00,
2013-03-14 21:20:00,46.2,27.5,29.32,ESE,113,0.0,0.0,48,0.08,,,0.85,WUHU216HW,2013-03-14 20:20:00,
2013-03-14 21:26:00,46.2,27.5,29.32,West,270,2.2,2.2,48,0.08,,,0.85,WUHU216HW,2013-03-14 20:26:00,
2013-03-14 21:31:00,46.2,27.5,29.32,SSE,158,3.5,3.5,48,0.06,,,0.85,WUHU216HW,2013-03-14 20:31:00,
2013-03-14 21:36:00,46.5,27.3,29.32,NW,315,1.7,3.5,47,0.06,,,0.85,WUHU216HW,2013-03-14 20:36:00,
2013-03-14 21:41:00,46.2,26.9,29.32,NNE,23,0.0,1.7,47,0.04,,,0.85,WUHU216HW,2013-03-14 20:41:00,
2013-03-14 21:46:00,46.2,26.9,29.33,WSW,248,2.9,2.9,47,0.04,,,0.85,WUHU216HW,2013-03-14 20:46:00,
2013-03-14 21:51:00,46.2,26.4,29.33,WSW,248,2.7,3.8,46,0.04,,,0.85,WUHU216HW,2013-03-14 20:51:00,
2013-03-14 21:56:00,46.0,26.8,29.34,SSW,203,3.5,4.9,47,0.04,,,0.85,WUHU216HW,2013-03-14 20:56:00,
2013-03-14 22:01:00,46.0,26.2,29.34,SSW,211,4.2,5.1,46,0.04,,,0.85,WUHU216HW,2013-03-14 21:01:00,
2013-03-14 22:06:00,46.0,26.2,29.34,South,180,2.5,5.1,46,0.04,,,0.85,WUHU216HW,2013-03-14 21:06:00,
2013-03-14 22:11:00,46.0,26.2,29.33,SW,225,3.3,4.0,46,0.02,,,0.85,WUHU216HW,2013-03-14 21:11:00,
2013-03-14 22:16:00,45.8,26.1,29.34,SW,225,4.4,5.5,46,0.00,,,0.85,WUHU216HW,2013-03-14 21:16:00,
2013-03-14 22:21:00,45.6,25.9,29.34,SSW,203,4.6,6.7,46,0.00,,,0.85,WUHU216HW,2013-03-14 21:21:00,
2013-03-14 22:26:00,45.8,26.1,29.34,South,180,3.3,6.7,46,0.00,,,0.85,WUHU216HW,2013-03-14 21:26:00,
2013-03-14 22:31:00,46.0,26.8,29.34,ESE,113,7.1,7.1,47,0.00,,,0.85,WUHU216HW,2013-03-14 21:31:00,
2013-03-14 22:36:00,46.2,28.0,29.34,SW,225,2.9,7.1,49,0.00,,,0.85,WUHU216HW,2013-03-14 21:36:00,
2013-03-14 22:41:00,46.2,29.0,29.34,SSE,158,3.1,3.5,51,0.00,,,0.85,WUHU216HW,2013-03-14 21:41:00,
2013-03-14 22:46:00,46.0,28.8,29.34,SSE,158,2.2,3.5,51,0.00,,,0.85,WUHU216HW,2013-03-14 21:46:00,
2013-03-14 22:51:00,46.0,28.4,29.34,SE,135,0.0,2.6,50,0.02,,,0.87,WUHU216HW,2013-03-14 21:51:00,
2013-03-14 22:56:00,46.0,28.4,29.35,SW,225,1.7,2.2,50,0.04,,,0.89,WUHU216HW,2013-03-14 21:56:00,
2013-03-14 23:01:00,45.6,28.1,29.34,SSW,203,0.0,2.2,50,0.07,,,0.92,WUHU216HW,2013-03-14 22:01:00,
2013-03-14 23:06:00,45.6,28.1,29.34,NW,315,1.7,2.0,50,0.07,,,0.92,WUHU216HW,2013-03-14 22:06:00,
2013-03-14 23:11:00,46.0,27.8,29.35,West,270,0.8,2.2,49,0.07,,,0.92,WUHU216HW,2013-03-14 22:11:00,
2013-03-14 23:16:00,46.0,27.8,29.35,NNE,23,0.0,2.2,49,0.07,,,0.92,WUHU216HW,2013-03-14 22:16:00,
2013-03-14 23:21:00,46.0,27.8,29.35,NNE,23,1.1,1.1,49,0.07,,,0.92,WUHU216HW,2013-03-14 22:21:00,
2013-03-14 23:26:00,46.0,27.8,29.36,NNW,338,0.8,1.3,49,0.09,,,0.94,WUHU216HW,2013-03-14 22:26:00,
2013-03-14 23:31:00,45.6,27.5,29.37,West,270,5.3,5.3,49,0.11,,,0.96,WUHU216HW,2013-03-14 22:31:00,
2013-03-14 23:36:00,45.1,28.5,29.36,SW,225,3.5,5.3,52,0.15,,,1.00,WUHU216HW,2013-03-14 22:36:00,
2013-03-14 23:41:00,44.9,29.7,29.36,South,180,3.1,3.5,55,0.19,,,1.04,WUHU216HW,2013-03-14 22:41:00,
2013-03-14 23:46:00,44.7,30.4,29.36,SE,135,3.5,3.8,57,0.19,,,1.06,WUHU216HW,2013-03-14 22:46:00,
2013-03-14 23:51:00,44.4,31.4,29.36,NE,45,3.8,3.8,60,0.25,,,1.12,WUHU216HW,2013-03-14 22:51:00,
2013-03-14 23:56:00,44.2,32.7,29.35,East,96,5.8,8.5,64,0.27,,,1.16,WUHU216HW,2013-03-14 22:56:00,